| Date | Time | Temp. (oF) | Dew Point (oF) | Rel. Hum. (%) | Press. (in.) | Wind Dir. | Wind Speed (mph) | Hourly Rainfall (in.) |
|
|---|---|---|---|---|---|---|---|---|---|
| 1 | 09/15 | 00:00 | 70 | 69 | 99 | 30.15 | SSE | 0 | 0.00 |
| 2 | 09/14 | 23:00 | 71 | 70 | 98 | 30.16 | S | 0 | 0.00 |
| 3 | 09/14 | 22:00 | 73 | 71 | 94 | 30.16 | S | 0 | 0.00 |
| 4 | 09/14 | 21:00 | 74 | 70 | 90 | 30.17 | SE | 0 | 0.00 |
| 5 | 09/14 | 20:00 | 76 | 71 | 86 | 30.15 | SSE | 0 | 0.00 |
| 6 | 09/14 | 19:00 | 78 | 71 | 81 | 30.14 | SSE | 1 | 0.00 |
| 7 | 09/14 | 18:00 | 80 | 72 | 77 | 30.12 | SSW | 4 | 0.00 |
| 8 | 09/14 | 17:00 | 81 | 72 | 76 | 30.11 | S | 4 | 0.00 |
| 9 | 09/14 | 16:00 | 81 | 71 | 74 | 30.13 | S | 9 | 0.00 |
| 10 | 09/14 | 15:00 | 82 | 72 | 72 | 30.15 | S | 10 | 0.00 |
| 11 | 09/14 | 14:00 | 81 | 73 | 77 | 30.17 | S | 11 | 0.00 |
| 12 | 09/14 | 13:00 | 79 | 71 | 78 | 30.19 | ESE | 10 | 0.00 |
| 13 | 09/14 | 12:00 | 78 | 71 | 80 | 30.21 | SSW | 6 | 0.00 |
| 14 | 09/14 | 11:00 | 76 | 71 | 86 | 30.21 | SSE | 7 | 0.00 |
| 15 | 09/14 | 10:00 | 74 | 71 | 93 | 30.22 | SSE | 4 | 0.00 |
| 16 | 09/14 | 09:00 | 72 | 72 | 100 | 30.22 | SSW | 4 | 0.00 |
| 17 | 09/14 | 08:00 | 70 | 69 | 100 | 30.22 | SE | 3 | 0.00 |
| 18 | 09/14 | 07:00 | 70 | 69 | 100 | 30.21 | SE | 4 | 0.00 |
| 19 | 09/14 | 06:00 | 70 | 69 | 100 | 30.19 | NE | 3 | 0.00 |
| 20 | 09/14 | 05:00 | 71 | 71 | 100 | 30.18 | ESE | 2 | 0.00 |
| 21 | 09/14 | 04:00 | 72 | 72 | 100 | 30.18 | E | 1 | 0.00 |
| 22 | 09/14 | 03:00 | 73 | 72 | 100 | 30.19 | SE | 3 | 0.00 |
| 23 | 09/14 | 02:00 | 73 | 72 | 100 | 30.20 | ESE | 1 | 0.00 |
| 24 | 09/14 | 01:00 | 73 | 72 | 100 | 30.19 | SE | 1 | 0.12 |